User: anonymous   Login
Location: Caltech
(34.1382°N, 118.1253°W)
Time: 13:09:33
(UTC-07:00)
Language:

Cosmos 1733 Rocket - Orbit

View from above orbital plane
View from above orbital plane
View from above satellite
View from above satellite

Ground track
Ground track

The orbit data is extracted from the following two-line orbital elements,

1 16612U 86018B   15147.86449503  .00000262  00000-0  28540-4 0  9999
2 16612 082.5166 281.2320 0019261 111.0558 001.8894 14.83923750480020
Epoch (UTC): 27 May 2015 20:44:52
Eccentricity: 0.0019261
inclination: 82.5166°
perigee height: 603 km
apogee height: 630 km
right ascension of ascending node: 281.2320°
argument of perigee: 111.0558°
revolutions per day: 14.83923750
mean anomaly at epoch: 1.8894°
orbit number at epoch: 48002

The dashed part of the orbit path shows where the satellite is in the earth's shadow,  

DLR